This demonstration page uses our WeatherBlox Daily Observations layout. Learn more.

Left ArrowRight Arrow

Hourly Observations for June 4, 2016

Temp ( °F °C ) Dew Point ( °F °C ) Humidity (%) Winds ( mph kmh ) Pressure ( in mb ) Visibility ( mi km ) Precip ( " mm )
6:30 am 06:30 Cloudy 64 18 64 18 100 100 NNE 6 9 29.94 1014 10 16 N/A
6:59 am 06:59 Mostly Cloudy 64 18 63 17 94 94 ENE 5 7 29.94 1014 10 16 N/A
7:45 am 07:45 Cloudy 66 19 64 18 94 94 E 5 7 29.94 1014 10 16 N/A
8:51 am 08:51 Partly Cloudy 68 20 64 18 88 88 E 7 11 29.91 1013 10 16 N/A
9:45 am 09:45 Mostly Cloudy 70 21 64 18 83 83 ESE 7 11 29.91 1013 10 16 N/A
10:54 am 10:54 Mostly Cloudy 72 22 66 19 83 83 SE 9 15 29.91 1013 10 16 N/A
11:45 am 11:45 Cloudy with Light Rain 72 22 66 19 83 83 SSE 12 19 29.88 1012 7 11 N/A
12:59 pm 12:59 Cloudy with Light Rain 70 21 68 20 94 94 SSE 12 19 29.88 1012 5 8 N/A
1:51 pm 13:51 Cloudy with Light Rain 73 23 70 21 89 89 S 9 15 29.85 1011 7 11 N/A
2:47 pm 14:47 Cloudy with Light Rain 73 23 72 22 94 94 S 12 19 29.83 1010 5 8 N/A
3:47 pm 15:47 Mostly Cloudy 73 23 72 22 94 94 S 9 15 29.77 1008 7 11 N/A
4:47 pm 16:47 Mostly Cloudy 77 25 68 20 74 74 SW 13 20 29.77 1008 10 16 N/A
5:05 pm 17:05 Cloudy with Light Rain 73 23 72 22 94 94 W 21 33 29.77 1008 2 2 N/A
5:36 pm 17:36 Cloudy 68 20 68 20 100 100 NNW 7 11 29.77 1008 10 16 N/A
5:46 pm 17:46 Cloudy 68 20 68 20 100 100 NNW 7 11 29.77 1008 10 16 N/A
6:45 pm 18:45 Mostly Cloudy with Light Rain 66 19 66 19 100 100 N 5 7 29.77 1008 3 5 N/A
7:41 pm 19:41 Mostly Cloudy 68 20 68 20 100 100 NNW 5 7 29.77 1008 10 16 N/A
7:53 pm 19:53 Mostly Cloudy 68 20 68 20 100 100 NW 5 7 29.77 1008 10 16 N/A
8:51 pm 20:51 Partly Cloudy 68 20 68 20 100 100 WNW 3 6 29.77 1008 10 16 N/A
9:47 pm 21:47 Partly Cloudy 66 19 66 19 100 100 Calm 29.77 1008 10 16 N/A

Powered by AerisWeather